Showing default

OV1-13, 3173

Orbit data source: Space-Track

OV1-13, 3173 is a payload satellite owned by USAF OAR (US) that was launched on Sat, 06 Apr 1968 UTC via an ATLAS F launch vehicle from the Air Force Western Test Range (AFWTR). Payloads include a variety of satellites, spacecraft, and rockets equipped with specific instruments for various scientific and technological missions. These include communications satellites like Starlink; space stations such as the ISS; scientific satellites like the Hubble; Earth observation satellites from companies like Planet Labs, Umbra, and HawkEye 360; GPS; miniature CubeSats for education and research; and military/defense satellites.

Loading next visibility...
OV1-13 details
Identifier
3173, 1968-026A
Orbit
Active
Last TLE update14 hours ago
Origin
Flag of USUSAF OAR (US)
ManufacturerGD/Convair
MissionCivil Science
Bus & MotorOV1, Unknown motor
Mass107 kg wet, 107 kg dry
Launch date (UTC)
1968-04-06 (57 years ago)
Launch vehicle
ATLAS F
Launch site
Air Force Western Test Range (AFWTR)
Object type
Payload
Rocket body
Debris
Shape & HBRDomed Cyl, 1.4 m
Radar Cross Section0.946 m², Medium (>0.1 m² and < 1m²)

Expand to show TLE details & history

TLE from 14 hours ago
0 OV1-13
1 03173U 68026A   24356.67062511  .00000126  00000-0  19543-3 0  9998
2 03173  99.9431 218.9792 3847783   5.1753 357.9219  7.25657833498845
Epoch: 2024-12-21T16:05Z
Definitive object data (Epoch: 2024-12-21T16:05:42.009Z)
Latitude0.00009°
Longitude-113.1643°
Altitude564.488 km
Speed8.916 km/s
True Right ascension14h 35m 55s
True Declination0° 00' 00"
Sunlit
Object was in daylight at TLE epoch
Visualization TLE readout
Latitude62.33928°
Longitude86.49142°
Altitude4,792.946 km
Speed6.007 km/s
Apparent Right ascension23h 12m 54s
Apparent Declination75° 25' 53"
Sunlit
Object is in daylight
Visualization observer readout
Local Sidereal Time05:01:57
Azimuth341.118° N
Elevation39.069°
Doppler factor1
Orbital elements
Apogee altitude9,224.832 km
Perigee altitude553.864 km
Semi-major axis11,267.485 km
Eccentricity0.3847783
Inclination99.9431°
RAAN218.9792°
Arg. of periapsis5.1753°
True anomaly354.93599°
Mean anomaly357.9219°
Eccentric anomaly356.62342°
Mean motion1.81469 °/min
BSTAR0.00019543
Orbital period198.38 mins
Loading maneuver chart data...
Loading historical data...
Loading historical data...
Loading historical data...
Loading historical data...
Loading historical data...
Loading historical data...
Loading historical data...
Other satellites on launch #26 in the year 1968 (1968-04-06 UTC)

OV1-13 Visibility forecast

Observer location: undefined°, undefined

Span
Click to sort rows by Start time (UTC) header in descending order
Start Az.
Max El. time (UTC)
Max El. Az.
Max El.
End time (UTC)
End Az.
51 mins2024-12-22 05:57:16.517Z341.076° N2024-12-22 06:06:16.517Z304.687° NW37.07°2024-12-22 06:48:16.517Z244.462° WSW
10 mins2024-12-22 09:07:16.517Z346.467° N2024-12-22 09:11:16.517Z333.995° NNW11.822°2024-12-22 09:17:16.517Z319.548° NNW
10 mins2024-12-22 15:22:16.517Z201.692° SSW2024-12-22 15:24:16.517Z265.118° W39.11°2024-12-22 15:32:16.517Z340.872° N
79 mins2024-12-23 01:44:16.517Z26.698° NE2024-12-23 02:11:16.517Z101.447° ESE37.835°2024-12-23 03:03:16.517Z175.432° S
59 mins2024-12-23 04:58:16.517Z8.758° NNE2024-12-23 05:19:16.517Z296.241° NW41.775°2024-12-23 05:57:16.517Z233.339° WSW
|